Regional Weather Roundup
Issued by NWS

Home | Current Version | Previous Version | Graphics & Text | Print | Product List | Glossary On
Versions: 1 2 3 4 5 6 7 8 9 10 11 12 13 14 15 16 17 18 19 20 21 22 23 24 25 26 27 28 29 30 31 32 33 34 35 36 37 38 39 40 41 42 43 44 45 46 47 48 49 50
000
ASUS43 KLMK 190202
RWRKY
KENTUCKY REGIONAL WEATHER ROUNDUP
NATIONAL WEATHER SERVICE LOUISVILLE KY
900 PM EST THU JAN 18 2018

NOTE "FAIR" INDICATES FEW OR NO CLOUDS BELOW 12,000 FEET
WITH NO SIGNIFICANT WEATHER AND/OR OBSTRUCTIONS TO VISIBILITY.

KYZ001>023-026-027-061>063-070>075-190300-
WESTERN AND SOUTH CENTRAL KENTUCKY

CITY           SKY/WX    TMP DP  RH WIND       PRES   REMARKS
PADUCAH        FAIR      25  11  55 SW5       30.31F WCI  19
HENDERSON      FAIR      25  13  60 SW12      30.30S WCI  14
OWENSBORO      FAIR      21  12  68 S8        30.31F WCI  11
HOPKINSVILLE   FAIR      26  11  52 S6        30.32F WCI  19
BOWLING GREEN  FAIR      21  14  74 CALM      30.35R
GLASGOW        NOT AVBL
$$

KYZ024-025-028>034-038-045-046-053-190300-
NORTH CENTRAL KENTUCKY

CITY           SKY/WX    TMP DP  RH WIND       PRES   REMARKS
LOUISVILLE/SDF FAIR      28  13  53 S9        30.29F WCI  19
LOUISVILLE/LOU FAIR      27  14  58 S9        30.30F WCI  18
FORT KNOX      CLEAR     23  12  63 S9        30.31F WCI  13
$$

KYZ035>037-039>044-047>052-055>060-089>105-190300-
NORTHEAST KENTUCKY

CITY           SKY/WX    TMP DP  RH WIND       PRES   REMARKS
LEXINGTON      FAIR      23  10  57 SW9       30.29S WCI  13
COVINGTON      FAIR      25  14  63 S16       30.21F WCI  12
FRANKFORT      FAIR      24  10  55 SW13      30.28F WCI  12
$$

KYZ054-064>069-076>088-106>120-190300-
SOUTHEAST KENTUCKY

CITY           SKY/WX    TMP DP  RH WIND       PRES   REMARKS
JACKSON        FAIR      25  12  58 SW3       30.28S
LONDON         FAIR      24  12  60 S3        30.31S
SOMERSET       NOT AVBL
MIDDLESBORO    FAIR      20  17  86 CALM      30.35F
MONTICELLO     FAIR      11   5  77 NE8       30.34F WCI  -1
$$





USA.gov is the U.S. government's official web portal to all federal, state and local government web resources and services.